Location: Dominion City
(49.1330°N, 97.1500°W)
Time: 17:27:30
(UTC-05:00)

Daily predictions for brighter satellites

Satellite Brightness Start Highest point End
(mag) Time Altitude Azimuth Time Altitude Azimuth Time Altitude Azimuth
NOSS 3-1 (C) 4.3 19:38:22 10° NW 19:45:49 80° SW 19:54:09 10° SSE
FengYun 1-2 T 4.4 19:44:59 10° SE 19:50:23 52° ENE 19:55:46 10° N
Cosmos 1271 Rocket 3.0 19:47:17 10° SSW 19:51:04 75° WNW 19:54:57 10° N
Cosmos 1943 4.0 19:48:06 10° SW 19:53:41 56° WNW 19:59:20 10° NNE
Cosmos 540 Rocket 4.4 19:49:56 10° SSE 19:54:06 26° E 19:58:18 10° NE
Elektron 1 4.3 19:50:16 10° NW 19:54:23 53° NE 19:57:15 10° ESE
Cosmos 2184 Rocket 4.4 19:49:57 10° SSE 19:55:51 43° E 20:01:49 10° NNE
Meteor 2-13 Rocket 4.4 19:52:22 10° S 19:58:22 64° E 20:04:22 10° NNE
Cosmos 1763 Rocket 3.4 19:54:12 10° SSW 19:59:17 70° ESE 20:04:28 10° NNE
HJ-1C 3.9 19:57:51 10° SE 20:01:00 38° ENE 20:04:10 10° N
USA 186 3.4 20:02:05 10° ENE 20:02:20 10° ENE 20:02:40 10° ENE
SL-08 ROCKET BODY 4.4 19:57:36 10° S 20:03:27 68° E 20:09:25 10° NNE
Cosmos 1340 Rocket 4.4 20:05:01 10° NNW 20:08:51 41° W 20:12:42 10° SSW
USA 267 3.8 20:02:55 10° ENE 20:09:17 57° NNW 20:15:40 10° W
Cosmos 1805 4.3 20:07:47 10° SE 20:10:56 24° E 20:14:06 10° NE
Cosmos 1943 Rocket 4.4 20:10:05 10° NW 20:14:44 27° WSW 20:19:23 10° SSW
Cosmos 1939 Rocket 4.4 20:13:42 13° E 20:15:37 18° ENE 20:18:22 10° NNE
CZ-2D R/B 3.7 20:14:48 10° SE 20:18:24 41° ENE 20:22:00 10° N
Cosmos 304 Rocket 3.7 20:18:37 10° SSW 20:23:24 79° ESE 20:28:14 10° NNE
COSMO-SKYMED 1 4.0 20:19:52 10° N 20:24:00 43° WNW 20:28:06 10° SW
Cosmos 2322 Rocket 4.4 20:24:49 10° N 20:25:58 11° NNE 20:27:08 10° NE
ISS -1.9 20:28:40 10° S 20:30:17 15° SE 20:30:17 15° SE
BREEZE-M DEB (TANK) 0.9 20:28:14 10° W 20:30:44 74° SSW 20:31:29 32° ESE
Thor Agena Rocket 3.6 20:25:58 10° NNE 20:31:16 88° WNW 20:36:28 10° SSW
Meteor 1-24 Rocket 4.0 20:25:15 10° NNW 20:31:16 81° W 20:37:04 10° S
Cosmos 1656 4.5 20:27:11 10° NNW 20:32:24 35° NE 20:35:48 19° ESE
Spot 2 Rocket 3.7 20:28:23 10° SE 20:33:13 49° ENE 20:38:04 10° N
Cosmos 2084 3.5 20:31:03 10° SW 20:35:02 67° NW 20:38:52 10° NE
Cosmos 1697 Rocket 3.8 20:30:40 10° NNW 20:35:34 29° NE 20:38:32 19° E
Cosmos 1980 Rocket 3.7 20:32:58 10° N 20:37:12 21° NE 20:39:52 15° ENE
Cosmos 836 Rocket 4.5 20:33:13 10° S 20:38:25 63° ESE 20:43:38 10° NNE
Cosmos 1076 Rocket 4.4 20:37:40 10° N 20:41:34 30° ENE 20:43:06 24° ESE
ALOS 4.0 20:38:06 10° SSW 20:42:23 35° W 20:46:41 10° NNW
SJ 16-02 1.2 20:37:58 10° NNW 20:42:23 77° ENE 20:46:14 13° SSE
SJ-6B 3.5 20:41:28 10° S 20:45:23 57° WSW 20:49:16 10° NNW
H-2A R/B 3.9 20:46:33 10° S 20:50:08 43° W 20:53:47 10° NNW
Cosmos 1953 2.8 20:47:22 15° SSE 20:50:18 38° E 20:54:05 10° NNE
ERS-1 Rocket 4.3 20:52:11 21° ENE 20:53:09 22° ENE 20:56:55 10° N
Resurs 1-3 3.5 20:49:23 12° SSE 20:53:26 76° ENE 20:57:51 10° N
Cosmos 1356 3.5 20:50:54 10° NNW 20:54:25 77° W 20:57:26 13° S
Cosmos 372 Rocket 4.4 20:49:42 10° NNW 20:54:56 66° WSW 21:00:08 10° S
Cosmos 1125 Rocket 4.1 20:50:13 10° NNW 20:55:26 59° WSW 21:00:38 10° S
YAOGAN 6 3.4 20:57:08 32° ENE 20:57:14 32° ENE 21:00:31 10° N
Cosmos 2154 Rocket 3.9 20:54:57 10° S 21:01:09 71° E 21:07:25 10° NNE
Cosmos 2074 Rocket 4.4 20:55:55 10° SSW 21:02:04 66° WNW 21:08:16 10° N
Cosmos 1544 3.5 20:58:39 10° SSW 21:02:13 61° WNW 21:05:50 10° N
SL-16 R/B 4.1 21:01:45 10° N 21:05:06 16° NNE 21:07:07 13° ENE
Envisat 2.9 21:01:14 14° SSE 21:05:39 83° ENE 21:10:46 10° NNW
ARGOS 4.3 21:05:24 24° ENE 21:06:15 25° ENE 21:10:33 10° N
Cosmos 1408 Rocket 4.2 21:09:08 10° N 21:13:05 36° ENE 21:13:05 36° ENE
Cosmos 1900 4.4 21:08:48 10° SSW 21:13:49 62° ESE 21:18:56 10° NE
Cosmos 2341 Rocket 3.9 21:08:47 10° S 21:14:54 65° E 21:21:05 10° NNE
Cosmos 1674 2.6 21:11:30 10° NNW 21:15:15 80° W 21:16:47 34° S
FALCON 9 R/B 3.9 21:12:59 10° SSW 21:15:43 17° SSE 21:15:43 17° SSE
Cosmos 1812 Rocket 3.9 21:13:15 10° SSW 21:17:42 68° W 21:22:12 10° N
GP-B 3.3 21:13:18 10° N 21:17:45 73° W 21:22:10 10° S
COSMOS 2406 3.6 21:12:34 10° SW 21:18:15 67° WNW 21:24:01 10° NNE
Resurs 01 Rocket 2.2 21:15:42 11° S 21:19:52 57° W 21:24:14 10° NNW
ATLAS 2AS CENTAUR R/B 3.0 21:11:44 10° NW 21:19:53 76° NE 21:23:48 33° SE
Cosmos 2369 3.6 21:20:28 10° NNW 21:26:10 89° SW 21:28:37 36° SSE
Meteor 2-21 4.5 21:22:45 21° SSE 21:26:49 56° E 21:32:47 10° NNE
SL-27 R/B 2.6 21:23:17 10° SSW 21:26:55 77° WNW 21:30:35 10° NNE
Nadezhda 3 Rocket 4.4 21:20:43 10° NNW 21:26:57 64° W 21:33:06 10° S
H-2A R/B 3.3 21:28:13 23° NE 21:28:13 23° NE 21:31:51 10° N
USA 186 3.7 21:33:40 21° WNW 21:33:40 21° WNW 21:34:59 10° NW
Cosmos 2366 rocket 4.2 21:34:13 43° ESE 21:35:04 46° E 21:41:01 10° NNE
Cosmos 1758 3.8 21:31:14 10° SSW 21:35:12 59° WNW 21:39:11 10° N
Cosmos 540 Rocket 4.4 21:30:29 10° SW 21:35:26 49° WNW 21:40:25 10° NNE
Helios 1A 3.1 21:37:03 59° NE 21:37:03 59° NE 21:40:51 10° N
MOS 1-B Rocket 4.4 21:31:06 10° S 21:37:01 57° WSW 21:42:34 10° NNW
Meteor 2-15 Rocket 4.3 21:30:57 10° N 21:37:03 70° ENE 21:39:04 43° SSE
Cosmos 1733 3.6 21:40:47 55° N 21:40:47 55° N 21:43:50 10° N
Cosmos 2218 Rocket 4.0 21:38:40 45° SE 21:40:07 55° E 21:46:08 10° NNE
Cosmos 1766 Rocket 3.4 21:37:49 10° N 21:42:02 75° NE 21:42:02 75° NE
Cosmos 2285 Rocket 3.9 21:36:20 10° S 21:42:40 65° ESE 21:49:03 10° NNE
Okean 3 Rocket 4.1 21:39:21 10° NNW 21:43:45 56° W 21:45:29 33° SSW
Cosmos 2084 Rocket 3.7 21:42:16 10° NW 21:45:24 53° N 21:45:24 53° N
SPOT 5 4.1 21:51:28 26° NNE 21:51:28 26° NNE 21:54:04 10° N
Cosmos 1939 Rocket 3.6 21:49:37 44° SW 21:50:13 48° W 21:54:05 10° NNW
Cosmos 2360 4.5 21:44:47 10° NNW 21:50:21 49° NE 21:50:41 48° ENE
Cosmos 1295 Rocket 4.4 21:45:00 10° SSW 21:51:06 81° W 21:57:13 10° N
USA 267 4.0 21:48:02 23° ENE 21:51:43 45° N 21:57:52 10° WNW
Cosmos 1809 Rocket 4.3 21:47:40 17° S 21:52:36 88° ESE 21:58:45 10° N
Cosmos 2082 Rocket 3.8 22:01:05 22° NE 22:01:05 22° NE 22:03:03 10° NE
Cosmos 292 Rocket 4.2 21:53:03 10° SW 21:57:51 61° WNW 22:02:41 10° NNE
MetOp-B 4.1 21:59:14 65° ENE 21:59:14 65° ENE 22:04:29 10° N
Cosmos 2278 4.2 21:54:45 10° NW 22:00:16 54° WSW 22:02:00 39° SSW
Cosmos 1727 Rocket 3.9 21:55:48 10° N 22:02:07 74° ENE 22:02:57 65° SE
SL-8 Rocket 3.9 21:59:29 33° S 22:02:28 89° W 22:08:41 10° N
Meteor 2-16 Rocket 4.3 22:02:47 68° ESE 22:03:10 70° E 22:09:14 10° NNE
BREEZE-M DEB (TANK) 3.7 21:58:25 10° WSW 22:04:19 42° SSW 22:04:19 42° SSW
Cosmos 1470 3.8 22:07:03 45° NW 22:07:03 45° NW 22:10:25 10° N
Cosmos 2322 Rocket 3.3 22:06:55 10° NNW 22:11:28 32° NE 22:11:28 32° NE
Meteor 2-14 Rocket 4.3 22:11:37 53° SSW 22:13:12 87° W 22:19:22 10° N
Cosmos 1656 4.3 22:10:47 10° NW 22:16:14 49° WSW 22:17:15 43° SW
Meteor 2-21 Rocket 4.5 22:17:24 45° SSW 22:19:26 77° W 22:25:36 10° N
Cosmos 2360 Rocket 3.9 22:15:39 10° N 22:19:35 20° NE 22:19:35 20° NE
Cosmos 1697 Rocket 2.9 22:14:21 10° NNW 22:19:59 64° WSW 22:20:16 63° SW
SJ 16-02 4.2 22:18:23 10° WNW 22:20:20 13° W 22:22:17 10° WSW
Cosmos 1980 Rocket 2.2 22:16:22 10° NNW 22:21:37 77° N 22:21:37 77° N
ERS-1 Rocket 3.5 22:32:12 57° WNW 22:32:12 57° WNW 22:36:31 10° NNW
SPOT 1/Viking Rocket 4.4 22:35:20 43° N 22:35:20 43° N 22:38:50 10° N
Cosmos 1818 4.0 22:31:41 10° NW 22:36:11 58° WNW 22:36:11 58° WNW
BREEZE-M DEB (TANK) 3.6 22:27:17 10° WNW 22:40:50 77° WSW 22:40:50 77° WSW
ARGOS 3.7 22:46:56 55° WNW 22:46:56 55° WNW 22:51:30 10° NNW
Terra 3.7 22:51:43 23° N 22:51:43 23° N 22:53:40 10° N
SL-16 R/B 3.1 22:44:56 10° NNW 22:48:58 42° N 22:48:58 42° N
H-2A R/B 3.4 23:08:51 35° NW 23:08:51 35° NW 23:11:56 10° NNW
ATLAS 2AS CENTAUR R/B 4.0 23:03:26 10° NW 23:10:20 33° WSW 23:11:15 32° SW
Cosmos 1833 Rocket 4.1 23:19:19 33° N 23:19:19 33° N 23:22:45 10° NNE
NOSS 3-4 (A) 4.1 23:16:13 10° NW 23:21:49 61° WNW 23:21:49 61° WNW
NOSS 3-4 (C) 4.1 23:16:20 10° NW 23:21:55 61° WNW 23:21:55 61° WNW
Cosmos 2219 Rocket 4.3 23:20:39 10° N 23:23:26 18° NNE 23:23:26 18° NNE
USA 267 3.8 23:35:23 54° NNW 23:35:23 54° NNW 23:40:39 10° WNW
Cosmos 2082 Rocket 3.8 23:42:52 31° NNW 23:42:52 31° NNW 23:47:00 10° NNE
